Weather in Gojra

Pakistan     32°26′53″N   73°23′04″E
temp.,
°C
wind,
m/s
gust,
m/s
humid.,
%
clouds,
%
prec.,
mm/h
press.,
hPa
HPBL,
m
9 march, tue
tue923:00+19nne34390 0.0 101257
02:00+18nne23400 0.0 101233
05:00+16ene22440 0.0 101224
08:00+21n12360 0.0 101396
11:00+30n12200 0.0 1014943
14:00+33nw02150 0.0 10103444
17:00+31nnw33170 0.0 1009481
20:00+22n23260 0.0 101025
10 march, wed
wed1023:00+19nne22330 0.0 101131
02:00+17nne123626 0.0 101023
05:00+16ne003963 0.1 101023
08:00+21ne463281 0.0 1012188
11:00+31ene121742 0.0 10121049
14:00+33w241295 0.0 10103408
17:00+32n341587 0.0 1008667
20:00+23nne332367 0.0 100925
11 march, thu
thu1123:00+18ne343943 0.0 101037
02:00+18wsw124242 0.1 100923
05:00+17ene344671 0.1 100967
08:00+20ne463994 0.0 1011180
11:00+32ese461396 0.0 10121610
14:00+35ssw35999 0.0 10093964
17:00+32wnw121282 0.0 100629
20:00+23e582280 0.0 1008113
12 march, fri
fri1223:00+20nw584488 0.3 1010119
02:00+18n3454100 0.1 101052
05:00+16nne235495 0.1 101026
08:00+21nne3539100 0.0 1013199
11:00+27nne4428100 0.1 1014989
14:00+31nw1320100 0.1 10111718
17:00+28wnw4623100 0.1 1010487
20:00+18nne4953100 0.0 1012166
13 march, sat
sat1323:00+16ne346160 0.0 101563
02:00+16ene36660 0.0 1015106
05:00+14ne23741 0.0 101625
08:00+19nnw235381 0.0 1017140
11:00+28n222790 0.0 10171160
14:00+30nw3222100 0.0 10141827
17:00+30nw2222100 0.0 10111273
20:00+22nnw223423 0.0 101123